Location: Hartford
(41.7640°N, 72.6860°W)
Time: 19:10:15
(UTC-04:00)

ISS - All Passes

Search period start: 01 July 2015 00:00
Search period end: 11 July 2015 00:00
Orbit: 398 x 403 km, 51.6° (Epoch: 01 July)

Date Brightness Start Highest point End Pass type
(mag) Time Alt. Az. Time Alt. Az. Time Alt. Az.
01 Jul - 08:53:50 10° S 08:56:19 21° SE 08:58:51 10° E daylight
01 Jul - 10:29:23 10° WSW 10:32:32 47° NNW 10:35:41 10° NE daylight
01 Jul - 12:07:22 10° NW 12:09:31 16° N 12:11:40 10° NNE daylight
01 Jul - 13:44:43 10° NNW 13:46:51 16° N 13:49:00 10° NE daylight
01 Jul - 15:20:43 10° NW 15:23:51 45° NNE 15:26:59 10° ESE daylight
01 Jul - 16:57:31 10° W 17:00:05 21° SW 17:02:36 10° S daylight
02 Jul - 08:02:20 10° SE 08:03:02 11° SE 08:03:52 10° ESE daylight
02 Jul - 09:35:46 10° SW 09:39:01 87° NW 09:42:17 10° NE daylight
02 Jul - 11:13:17 10° WNW 11:15:48 20° NNW 11:18:17 10° NNE daylight
02 Jul - 12:51:11 10° NNW 12:53:05 15° N 12:55:01 10° NE daylight
02 Jul - 14:27:22 10° NW 14:30:16 29° NNE 14:33:09 10° E daylight
02 Jul - 16:03:39 10° WNW 16:06:44 41° SW 16:09:48 10° SSE daylight
03 Jul - 08:42:27 10° SW 08:45:35 47° SE 08:48:43 10° ENE daylight
03 Jul - 10:19:15 10° W 10:22:06 27° NNW 10:24:56 10° NE daylight
03 Jul - 11:57:24 10° NW 11:59:18 14° N 12:01:12 10° NNE daylight
03 Jul - 13:34:01 10° NW 13:36:35 21° NNE 13:39:08 10° ENE daylight
03 Jul - 15:10:03 10° NW 15:13:19 85° SW 15:16:33 10° SE daylight
04 Jul - 07:49:32 10° S 07:52:12 24° SE 07:54:54 10° E daylight
04 Jul - 09:25:21 10° WSW 09:28:28 42° NNW 09:31:35 10° NE daylight
04 Jul - 11:03:24 10° NW 11:05:30 16° N 11:07:35 10° NNE daylight
04 Jul - 12:40:37 10° NNW 12:42:50 17° NNE 12:45:03 10° NE daylight
04 Jul - 14:16:37 10° NW 14:19:48 51° NNE 14:22:57 10° ESE daylight
04 Jul - 15:53:35 10° W 15:55:58 19° SW 15:58:16 10° S daylight
05 Jul - 06:57:29 10° SSE 06:58:52 12° SE 07:00:22 10° ESE daylight
05 Jul - 08:31:39 10° WSW 08:34:54 76° NNW 08:38:09 10° NE daylight
05 Jul - 10:09:17 10° WNW 10:11:43 19° NNW 10:14:08 10° NNE daylight
05 Jul - 11:47:05 10° NNW 11:49:02 15° N 11:50:59 10° NE daylight
05 Jul - 13:23:13 10° NW 13:26:10 31° NNE 13:29:07 10° E daylight
05 Jul - 14:59:35 10° WNW 15:02:36 36° SW 15:05:35 10° SSE daylight
06 Jul - 07:38:13 10° SW 07:41:24 55° SE 07:44:36 10° ENE daylight
06 Jul - 09:15:12 10° W 09:17:59 25° NNW 09:20:45 10° NE daylight
06 Jul - 10:53:19 10° NW 10:55:12 14° N 10:57:05 10° NE daylight
06 Jul - 12:29:50 10° NW 12:32:27 22° NNE 12:35:06 10° ENE daylight
06 Jul - 14:05:54 10° WNW 14:09:08 73° SW 14:12:22 10° SE daylight
07 Jul - 06:45:11 10° SSW 06:47:59 27° SE 06:50:49 10° ENE daylight
07 Jul - 08:21:14 10° W 08:24:17 37° NNW 08:27:21 10° NE daylight
07 Jul - 09:59:19 10° NW 10:01:22 15° N 10:03:24 10° NNE daylight
07 Jul - 11:36:25 10° NNW 11:38:41 17° NNE 11:40:58 10° ENE daylight
07 Jul - 13:12:23 10° NW 13:15:36 58° NNE 13:18:48 10° ESE daylight
07 Jul - 14:49:35 10° W 14:51:43 16° SW 14:53:47 10° S daylight
08 Jul - 05:52:48 10° SSE 05:54:36 14° SE 05:56:29 10° E daylight
08 Jul - 07:27:26 10° WSW 07:30:40 66° NNW 07:33:55 10° NE daylight
08 Jul - 09:05:11 10° WNW 09:07:33 18° NNW 09:09:53 10° NNE daylight
08 Jul - 10:42:52 10° NNW 10:44:51 15° N 10:46:51 10° NE daylight
08 Jul - 12:18:57 10° NW 12:21:57 34° NNE 12:24:58 10° E daylight
08 Jul - 13:55:24 10° WNW 13:58:19 31° SW 14:01:13 10° SSE daylight
09 Jul - 06:33:55 10° SW 06:37:07 64° SE 06:40:21 10° ENE daylight
09 Jul - 08:11:03 10° WNW 08:13:45 23° NNW 08:16:27 10° NE daylight
09 Jul - 09:49:06 10° NW 09:50:59 14° N 09:52:53 10° NE daylight
09 Jul - 11:25:31 10° NW 11:28:14 24° NNE 11:30:56 10° ENE daylight
09 Jul - 13:01:38 10° WNW 13:04:52 63° SW 13:08:03 10° SE daylight
10 Jul - 05:40:43 10° SSW 05:43:38 31° SE 05:46:35 10° ENE daylight
10 Jul - 07:17:00 10° W 07:20:00 34° NNW 07:23:02 10° NE daylight
10 Jul - 08:55:07 10° NW 08:57:07 15° N 08:59:06 10° NNE daylight
10 Jul - 10:32:05 10° NNW 10:34:25 18° NNE 10:36:47 10° ENE daylight
10 Jul - 12:08:04 10° NW 12:11:18 66° NNE 12:14:31 10° ESE daylight
10 Jul - 13:45:31 10° W 13:47:21 14° SW 13:49:07 10° SSW daylight
